Preview of NWS' New Version of Forecast
This preview is not operational and should not be used for support decisions.

Regional Weather Roundup (RWR)

Issued by National Weather Service (NWS)

                            
000
ASUS44 KJAN 171210
RWRMS 

MISSISSIPPI HOURLY WEATHER ROUNDUP
NATIONAL WEATHER SERVICE JACKSON MS
700 AM CDT MON JUN 17 2019

NOTE: "FAIR: INDICATES FEW OR NO CLOUDS BELOW 12,000 FEET WITH NO
SIGNIFICANT WEATHER AND/OR OBSTRUCTIONS TO VISIBILITY.

MSZ001>002-007>008-010>013-018>021-025>028-034>036-171300-
NORTHWEST MISSISSIPPI
  
CITY           SKY/WX    TMP DP  RH WIND       PRES   REMARKS
BATESVILLE       N/A     72  70  94 CALM      29.96R                  
CLARKSDALE     SUNNY     70  70 100 S5        29.95R                  
CLEVELAND      FAIR      70  70 100 CALM      29.95R                  
GREENWOOD      PTSUNNY   71  70  96 CALM      29.96R                  
6HR MIN TEMP:  71; 6HR MAX TEMP:  72; 6HR PCP:  0.01;                

GREENVILLE     FAIR      70  67  90 CALM      29.95R                  
6HR MIN TEMP:  68; 6HR MAX TEMP:  71;                                

OLIVE BRANCH   CLOUDY    72  68  88 S12       29.95R                  
OXFORD         FAIR      70  68  94 CALM      29.98R                  
TUNICA           N/A     70  64  83 S8        29.95R                  
WINONA         PTSUNNY   70  70 100 CALM      29.96R                  
$$

MSZ003>006-009-014>017-022>024-029>033-037>039-171300-
NORTHEAST MISSISSIPPI
  
CITY           SKY/WX    TMP DP  RH WIND       PRES   REMARKS
ABERDEEN       FAIR      70  66  88 CALM      29.98R                  
COLUMBUS AFB   FAIR      73  69  89 SE6       29.97R                  
6HR MIN TEMP:  70; 6HR MAX TEMP:  77;                                

CORINTH        FAIR      72  72 100 CALM      29.97R                  
GOLDN TRIANGLE FAIR      73  70  90 SE6       29.98R                  
STARKVILLE     FAIR      70  68  94 CALM      29.98R                  
TUPELO         NOT AVBL                                               
$$

MSZ040-058-171300-
CENTRAL MISSISSIPPI
  
CITY           SKY/WX    TMP DP  RH WIND       PRES   REMARKS
JACKSON INTL   FAIR      71  68  90 SE6       29.95R                  
6HR MIN TEMP:  69; 6HR MAX TEMP:  72;                                

JACKSON HAWKNS FAIR      71  70  96 SE5       29.95R                  
6HR MIN TEMP:  70; 6HR MAX TEMP:  72;                                

MADISON        FAIR      68  68 100 CALM      29.95R                  
MERIDIAN KEY   FAIR      73  69  87 CALM      29.98R                  
6HR MIN TEMP:  71; 6HR MAX TEMP:  73;                                

MERIDIAN NAS   PTSUNNY   71  68  90 CALM      29.99R                  
6HR MIN TEMP:  68; 6HR MAX TEMP:  72;                                

RAYMOND        FAIR      72  72 100 SE3       29.94R                  
VICKSBURG VKS  MOSUNNY   72  72 100 CALM      29.96R                  
$$

MSZ059>079-171300-
SOUTH MISSISSIPPI
  
CITY           SKY/WX    TMP DP  RH WIND       PRES   REMARKS
BROOKHAVEN     FAIR      70  68  94 MISG      29.98R                  
HATTIESBURG    FAIR      71  70  96 CALM      29.98R                  
6HR MIN TEMP:  70; 6HR MAX TEMP:  72;                                

LAUREL         SUNNY     71  69  94 S3        29.97R                  
MCCOMB         FAIR      71  69  93 CALM      29.96R                  
6HR MIN TEMP:  68; 6HR MAX TEMP:  72;                                

NATCHEZ        FAIR      70  68  93 S3        29.94R                  
6HR MIN TEMP:  67; 6HR MAX TEMP:  70; 6HR PCP: TRACE;                

PINE BELT      FAIR      71  70  96 SE3       29.98R                  
6HR MIN TEMP:  70; 6HR MAX TEMP:  71; 6HR PCP: TRACE;                

$$

MSZ080>082-171300-
COASTAL MISSISSIPPI
  
CITY           SKY/WX    TMP DP  RH WIND       PRES   REMARKS
BAY ST LOUIS   MOSUNNY   73  72  94 CALM      29.95                   
BILOXI         FAIR      74  73  95 NE3       29.96R                  
6HR MIN TEMP:  73; 6HR MAX TEMP:  75;                                

PASCAGOULA     FAIR      74  70  87 CALM      29.96S                  
6HR MIN TEMP:  69; 6HR MAX TEMP:  74;                                

GULFPORT       FAIR      76  72  87 CALM      29.95R                  
6HR MIN TEMP:  73; 6HR MAX TEMP:  76;                                

$$

LAZ007>009-015>016-023>026-171300-
NORTHEAST LOUISIANA
  
CITY           SKY/WX    TMP DP  RH WIND       PRES   REMARKS
BASTROP        PTSUNNY   68  67  98 CALM      29.95R                  
TALLULAH/VBURG FAIR      71  70  96 CALM      29.96R                  
6HR MIN TEMP:  68; 6HR MAX TEMP:  71;                                

VIDALIA        FAIR      72  70  92 CALM      29.93S                  
$$